Terminal Aerodrome Forecast
Issued by NWS Indianapolis, IN

Home | Current Version | Previous Version | Text Only | Print | Product List | Glossary On
Versions: 1 2 3 4 5 6 7 8 9 10 11 12 13 14 15 16 17 18 19 20 21 22 23 24
000
FTUS43 KIND 241700
TAFIND
TAF
KIND 241725Z 2418/2524 20013KT P6SM SCT060 BKN110
     FM250100 17013KT P6SM BKN040
     FM251000 18013KT P6SM -SHRA OVC025
     FM251500 20011G22KT P6SM BKN025=

USA.gov is the U.S. government's official web portal to all federal, state and local government web resources and services.